User: anonymous   Login
Location: ?????
(42.2640°N, 43.4211°E)
Time: 07:02:26
(UTC+00:00)
Language:

SL-16 R/B - Orbit

View from above orbital plane
View from above orbital plane
View from above satellite
View from above satellite

Ground track
Ground track

The orbit data is extracted from the following two-line orbital elements,

1 27006U 01056F   20299.94609589 -.00000047 +00000-0 -27764-5 0  9993
2 27006 099.4928 069.6060 0014668 006.2083 099.5968 13.70964386944504
Epoch (UTC): 25 October 2020 22:42:22
Eccentricity: 0.0014668
inclination: 99.4928°
perigee height: 985 km
apogee height: 1007 km
right ascension of ascending node: 69.6060°
argument of perigee: 6.2083°
revolutions per day: 13.70964386
mean anomaly at epoch: 99.5968°
orbit number at epoch: 94450

The dashed part of the orbit path shows where the satellite is in the earth's shadow,  

DLR